USA 164 (MILSTAR-2 3)

Last updated on Sat Feb 07 2026 00:02:47 GMT+0000 (Coordinated Universal Time)

1 27168U 02001A 26037.62970282 .00000097 00000+0 00000+0 0 9995 2 27168 11.0239 22.6838 0098904 3.9999 355.6801 1.00270622 31642
UTC large
Height (km)
Speed (km/s)
/
Latitude / Longitude
Inclination (degrees)
Orbital Period (minutes)
Azimuth
Elevation
Range (km)
Doppler Factor

Next 0 passes for location: London (51.5072 / 0.1276)

Sorry there are no passes over London.